Weather History for KAIZ - October, 2011

Change the Weather History Date:

Sunday, October 23, 2011

  Actual Average Record
Temperature  
Mean Temperature 60 °F -  
Max Temperature 75 °F 64 °F 82 °F (2012)
Min Temperature 46 °F 44 °F 28 °F (2006)
Degree Days  
Heating Degree Days 4    
Growing Degree Days 10 (Base 50)    
Moisture  
Dew Point 46 °F    
Average Humidity 62    
Maximum Humidity 82    
Minimum Humidity 38    
Precipitation  
Precipitation 0.00 in - - ()
Sea Level Pressure  
Sea Level Pressure 30.02 in    
Wind  
Wind Speed 4 mph (SW)    
Max Wind Speed 10 mph    
Max Gust Speed 17 mph    
Visibility 10 miles    
Events      
Averages and records for this station are not official NWS values.
T = Trace of Precipitation, MM = Missing Value Source: NWS Daily Summary

Daily Weather History Graph

Daily Weather History Graph

Search for Another Location

Airport or City:

Trip Planner

Search our weather history database for the weather conditions in past years. The results will help you decide how hot, cold, wet, or windy it might be!

Date:

Astronomy

Oct. 23, 2011 Rise Set
Actual Time 7:26 AM CDT 6:21 PM CDT
Civil Twilight 6:59 AM CDT 6:48 PM CDT
Nautical Twilight 6:28 AM CDT 7:19 PM CDT
Astronomical Twilight 5:58 AM CDT 7:50 PM CDT
Moon 3:37 AM CDT (10/23) 4:10 PM CDT (10/23)
Length of Visible Light 11h 49m
Length of Day
10h 55m
Waning Crescent, 14% of the Moon is Illuminated
Oct 23
Waning Crescent
Oct 26
New
Nov 2
First Quarter
Nov 10
Full
Nov 18
Last Quarter

Hourly Weather History & Observations

Time (CDT) Temp. Dew Point Humidity Pressure Visibility Wind Dir Wind Speed Gust Speed Precip Events Conditions
12:15 AM 51.8 °F 42.8 °F 71% 30.06 in 10.0 mi Calm Calm - N/A   Clear
12:35 AM 51.8 °F 42.8 °F 71% 30.05 in 10.0 mi Calm Calm - N/A   Clear
12:55 AM 50.0 °F 42.8 °F 76% 30.05 in 10.0 mi ENE 5.8 mph - N/A   Clear
1:15 AM 50.0 °F 41.0 °F 71% 30.04 in 10.0 mi ENE 3.5 mph - N/A   Clear
1:35 AM 48.2 °F 41.0 °F 76% 30.03 in 10.0 mi ENE 5.8 mph - N/A   Clear
1:55 AM 48.2 °F 39.2 °F 71% 30.02 in 10.0 mi ENE 5.8 mph - N/A   Clear
2:15 AM 48.2 °F 41.0 °F 76% 30.01 in 10.0 mi Calm Calm - N/A   Clear
2:35 AM 48.2 °F 41.0 °F 76% 30.02 in 10.0 mi Calm Calm - N/A   Clear
2:55 AM 48.2 °F 42.8 °F 82% 30.02 in 10.0 mi Calm Calm - N/A   Clear
3:15 AM 48.2 °F 42.8 °F 82% 30.02 in 10.0 mi SSE 4.6 mph - N/A   Partly Cloudy
3:35 AM 48.2 °F 42.8 °F 82% 30.02 in 10.0 mi Calm Calm - N/A   Mostly Cloudy
3:55 AM 48.2 °F 42.8 °F 82% 30.02 in 10.0 mi Calm Calm - N/A   Partly Cloudy
4:15 AM 48.2 °F 42.8 °F 82% 30.02 in 10.0 mi Calm Calm - N/A   Clear
4:35 AM 48.2 °F 42.8 °F 82% 30.03 in 10.0 mi Calm Calm - N/A   Clear
4:55 AM 48.2 °F 42.8 °F 82% 30.02 in 10.0 mi Calm Calm - N/A   Clear
5:15 AM 48.2 °F 42.8 °F 82% 30.02 in 10.0 mi Calm Calm - N/A   Clear
5:35 AM 48.2 °F 42.8 °F 82% 30.03 in 10.0 mi Calm Calm - N/A   Clear
5:55 AM 48.2 °F 42.8 °F 82% 30.03 in 10.0 mi Calm Calm - N/A   Clear
6:15 AM 46.4 °F 41.0 °F 81% 30.02 in 10.0 mi Calm Calm - N/A   Clear
6:35 AM 48.2 °F 41.0 °F 76% 30.03 in 10.0 mi East 3.5 mph - N/A   Clear
6:55 AM 48.2 °F 42.8 °F 82% 30.03 in 10.0 mi Calm Calm - N/A   Clear
7:55 AM 46.4 °F 41.0 °F 81% 30.03 in 10.0 mi Calm Calm - N/A   Clear
8:15 AM 48.2 °F 41.0 °F 76% 30.04 in 10.0 mi Calm Calm - N/A   Clear
8:35 AM 50.0 °F 44.6 °F 82% 30.04 in 10.0 mi Calm Calm - N/A   Clear
9:15 AM 55.4 °F 44.6 °F 67% 30.04 in 10.0 mi Calm Calm - N/A   Clear
9:55 AM 59.0 °F 46.4 °F 63% 30.04 in 10.0 mi South 3.5 mph - N/A   Clear
10:15 AM 60.8 °F 46.4 °F 59% 30.04 in 10.0 mi South 3.5 mph - N/A   Clear
10:35 AM 62.6 °F 48.2 °F 59% 30.05 in 10.0 mi Calm Calm - N/A   Clear
11:15 AM 66.2 °F 50.0 °F 56% 30.04 in 10.0 mi West 5.8 mph - N/A   Clear
11:35 AM 68.0 °F 50.0 °F 52% 30.03 in 10.0 mi WSW 4.6 mph - N/A   Clear
11:55 AM 69.8 °F 51.8 °F 53% 30.03 in 10.0 mi SW 8.1 mph - N/A   Clear
12:15 PM 71.6 °F 51.8 °F 50% 30.02 in 10.0 mi South 5.8 mph - N/A   Clear
12:35 PM 71.6 °F 51.8 °F 50% 30.02 in 10.0 mi South 8.1 mph - N/A   Clear
1:15 PM 73.4 °F 50.0 °F 44% 30.00 in 10.0 mi SW 9.2 mph - N/A   Clear
1:35 PM 73.4 °F 50.0 °F 44% 29.99 in 10.0 mi WSW 10.4 mph 16.1 mph N/A   Clear
1:55 PM 75.2 °F 50.0 °F 41% 29.99 in 10.0 mi WSW 10.4 mph 17.3 mph N/A   Clear
2:15 PM 73.4 °F 48.2 °F 41% 29.99 in 10.0 mi SSW 8.1 mph - N/A   Partly Cloudy
2:35 PM 73.4 °F 48.2 °F 41% 29.99 in 10.0 mi West 8.1 mph 17.3 mph N/A   Scattered Clouds
2:55 PM 73.4 °F 48.2 °F 41% 29.98 in 10.0 mi WSW 9.2 mph - N/A   Mostly Cloudy
3:15 PM 73.4 °F 48.2 °F 41% 29.98 in 10.0 mi West 4.6 mph - N/A   Partly Cloudy
3:35 PM 73.4 °F 48.2 °F 41% 29.98 in 10.0 mi SW 6.9 mph - N/A   Partly Cloudy
3:55 PM 75.2 °F 48.2 °F 38% 29.98 in 10.0 mi West 10.4 mph - N/A   Clear
4:15 PM 75.2 °F 48.2 °F 38% 29.98 in 10.0 mi West 9.2 mph - N/A   Clear
4:35 PM 73.4 °F 46.4 °F 38% 29.98 in 10.0 mi West 9.2 mph - N/A   Clear
4:55 PM 73.4 °F 48.2 °F 41% 29.98 in 10.0 mi WSW 9.2 mph - N/A   Mostly Cloudy
5:15 PM 73.4 °F 46.4 °F 38% 29.98 in 10.0 mi West 6.9 mph - N/A   Scattered Clouds
5:35 PM 73.4 °F 46.4 °F 38% 29.99 in 10.0 mi West 5.8 mph - N/A   Partly Cloudy
5:55 PM 71.6 °F 46.4 °F 41% 29.99 in 10.0 mi WSW 4.6 mph - N/A   Scattered Clouds
6:15 PM 71.6 °F 46.4 °F 41% 29.99 in 10.0 mi SW 5.8 mph - N/A   Clear
6:35 PM 68.0 °F 46.4 °F 46% 29.99 in 10.0 mi SW 5.8 mph - N/A   Clear
6:55 PM 66.2 °F 46.4 °F 49% 30.00 in 10.0 mi SW 5.8 mph - N/A   Clear
7:15 PM 64.4 °F 46.4 °F 52% 30.00 in 10.0 mi SW 6.9 mph - N/A   Clear
7:35 PM 64.4 °F 46.4 °F 52% 30.01 in 10.0 mi SW 8.1 mph - N/A   Clear
7:55 PM 64.4 °F 46.4 °F 52% 30.01 in 10.0 mi SW 8.1 mph - N/A   Clear
8:15 PM 62.6 °F 48.2 °F 59% 30.01 in 10.0 mi SW 6.9 mph - N/A   Clear
8:35 PM 62.6 °F 48.2 °F 59% 30.02 in 10.0 mi SW 6.9 mph - N/A   Clear
8:55 PM 62.6 °F 48.2 °F 59% 30.03 in 10.0 mi SW 8.1 mph - N/A   Clear
9:15 PM 62.6 °F 48.2 °F 59% 30.03 in 10.0 mi SW 6.9 mph - N/A   Clear
9:35 PM 60.8 °F 48.2 °F 63% 30.04 in 10.0 mi SW 6.9 mph - N/A   Clear
9:55 PM 60.8 °F 48.2 °F 63% 30.04 in 10.0 mi SW 8.1 mph - N/A   Clear
10:35 PM 59.0 °F 48.2 °F 67% 30.05 in 10.0 mi SW 8.1 mph - N/A   Clear
10:55 PM 60.8 °F 48.2 °F 63% 30.05 in 10.0 mi SW 6.9 mph - N/A   Clear
11:15 PM 59.0 °F 50.0 °F 72% 30.05 in 10.0 mi SSW 9.2 mph - N/A   Clear
11:35 PM 59.0 °F 50.0 °F 72% 30.05 in 10.0 mi SSW 6.9 mph - N/A   Clear
11:55 PM 57.2 °F 50.0 °F 77% 30.05 in 10.0 mi SW 5.8 mph - N/A   Clear